Edinburg, TX

1:32 AM CDT on April 23, 2018 (GMT -0500)
Edinburg

Weather History for KEBG - December, 2011

Change the Weather History Date:

Thursday, December 29, 2011

  Actual Average (KMFE) Record (KMFE)
Temperature  
Mean Temperature 62 °F -  
Max Temperature 80 °F 69 °F 87 °F (1990)
Min Temperature 45 °F 47 °F 31 °F (1983)
Degree Days  
Heating Degree Days 2    
Growing Degree Days 12 (Base 50)    
Moisture  
Dew Point 39 °F    
Average Humidity 50    
Maximum Humidity 91    
Minimum Humidity 14    
Precipitation  
Precipitation 0.00 in - - ()
Sea Level Pressure  
Sea Level Pressure 30.01 in    
Wind  
Wind Speed - (North)    
Max Wind Speed -    
Max Gust Speed -    
Visibility 10 miles    
Events      
Averages and records for this station are not official NWS values.
T = Trace of Precipitation, MM = Missing Value Source: NWS Daily Summary

Daily Weather History Graph

Daily Weather History Graph

Search for Another Location

Airport or City:

Astronomy

Dec. 29, 2011 Rise Set
Actual Time 7:19 AM CST 5:49 PM CST
Civil Twilight 6:54 AM CST 6:14 PM CST
Nautical Twilight 6:25 AM CST 6:43 PM CST
Astronomical Twilight 5:57 AM CST 7:12 PM CST
Moon 10:43 AM CST (12/29) 10:54 PM CST (12/29)
Length of Visible Light 11h 20m
Length of Day
10h 29m
Waxing Crescent, 27% of the Moon is Illuminated
Dec 29
Waxing Crescent
Jan 1
First Quarter
Jan 9
Full
Jan 16
Last Quarter
Jan 23
New

Hourly Weather History & Observations

Time (CST) Temp. Dew Point Humidity Pressure Visibility Wind Dir Wind Speed Gust Speed Precip Events Conditions
12:15 AM 53.6 °F 49.5 °F 86% 30.08 in 10.0 mi North - - N/A   Clear
12:35 AM 52.7 °F 48.7 °F 86% 30.07 in 10.0 mi North - - N/A   Clear
1:15 AM 50.4 °F 47.5 °F 90% 30.07 in 2.5 mi North - - N/A   Clear
1:35 AM 48.7 °F 46.2 °F 91% 30.07 in 5.0 mi North - - N/A   Clear
1:55 AM 48.4 °F 45.7 °F 90% 30.06 in 10.0 mi North - - N/A   Clear
7:35 AM 45.0 °F 41.5 °F 88% 30.09 in 10.0 mi North - - N/A   Clear
7:55 AM 45.1 °F 41.7 °F 88% 30.10 in 10.0 mi North - - N/A   Clear
8:15 AM 46.6 °F 42.6 °F 86% 30.10 in 10.0 mi North - - N/A   Clear
9:15 AM 53.1 °F 45.0 °F 74% 30.12 in 10.0 mi North - - N/A   Clear
9:35 AM 55.9 °F 44.4 °F 65% 30.12 in 10.0 mi North - - N/A   Clear
10:15 AM 60.4 °F 42.8 °F 52% 30.11 in 10.0 mi North - - N/A   Clear
10:35 AM 62.4 °F 42.3 °F 48% 30.11 in 10.0 mi North - - N/A   Clear
10:55 AM 65.5 °F 40.6 °F 40% 30.10 in 10.0 mi North - - N/A   Clear
11:15 AM 67.6 °F 40.6 °F 37% 30.09 in 10.0 mi North - - N/A   Clear
11:55 AM 72.7 °F 38.8 °F 29% 30.07 in 10.0 mi North - - N/A   Clear
12:15 PM 74.3 °F 37.0 °F 26% 30.05 in 10.0 mi North - - N/A   Clear
12:55 PM 76.8 °F 30.4 °F 18% 30.02 in 10.0 mi North - - N/A   Clear
1:15 PM 77.5 °F 28.8 °F 17% 29.99 in 10.0 mi North - - N/A   Clear
1:55 PM 78.8 °F 27.9 °F 15% 29.97 in 7.0 mi North - - N/A   Clear
2:55 PM 79.9 °F 27.3 °F 15% 29.95 in 10.0 mi North - - N/A   Clear
3:15 PM 80.2 °F 28.6 °F 15% 29.94 in 10.0 mi North - - N/A   Clear
3:35 PM 80.6 °F 28.2 °F 15% 29.94 in 10.0 mi North - - N/A   Clear
3:55 PM 80.2 °F 27.0 °F 14% 29.94 in 10.0 mi North - - N/A   Clear
4:15 PM 80.2 °F 27.0 °F 14% 29.94 in 10.0 mi North - - N/A   Clear
4:35 PM 80.2 °F 27.7 °F 15% 29.94 in 10.0 mi North - - N/A   Clear
4:55 PM 79.3 °F 27.5 °F 15% 29.94 in 10.0 mi North - - N/A   Clear
5:15 PM 77.9 °F 28.2 °F 16% 29.94 in 10.0 mi North - - N/A   Clear
5:55 PM 75.0 °F 31.5 °F 20% 29.94 in 10.0 mi North - - N/A   Clear
6:35 PM 67.1 °F 35.2 °F 31% 29.95 in 10.0 mi North - - N/A   Clear
6:55 PM 64.0 °F 36.0 °F 35% 29.95 in 10.0 mi North - - N/A   Clear
7:15 PM 61.7 °F 36.7 °F 39% 29.95 in 10.0 mi North - - N/A   Clear
7:35 PM 59.7 °F 38.1 °F 45% 29.95 in 10.0 mi North - - N/A   Clear
7:55 PM 58.3 °F 39.4 °F 49% 29.96 in 10.0 mi North - - N/A   Clear
8:15 PM 57.6 °F 41.7 °F 56% 29.97 in 10.0 mi North - - N/A   Clear
8:35 PM 57.6 °F 43.5 °F 59% 29.97 in 10.0 mi North - - N/A   Clear
8:55 PM 57.0 °F 44.1 °F 62% 29.97 in 10.0 mi North - - N/A   Clear
9:15 PM 56.3 °F 44.4 °F 64% 29.96 in 10.0 mi North - - N/A   Clear
9:35 PM 54.7 °F 45.0 °F 70% 29.96 in 10.0 mi North - - N/A   Clear
10:15 PM 53.6 °F 46.4 °F 77% 29.97 in 10.0 mi North - - N/A   Clear
10:55 PM 53.8 °F 46.8 °F 77% 29.96 in 10.0 mi North - - N/A   Clear
11:15 PM 54.0 °F 46.2 °F 75% 29.96 in 10.0 mi North - - N/A   Clear
11:35 PM 54.0 °F 45.3 °F 73% 29.95 in 10.0 mi North - - N/A   Clear
11:55 PM 54.7 °F 45.7 °F 72% 29.95 in 10.0 mi North - - N/A   Clear